This is the latest recevied weather packets stored in our database for station/object KD4MBW. If no packets are shown the sender has not sent any weather packets the latest 10 day(s).
| Time | Temp. | Humidity | Pressure | Rain* | Wind** | Luminosity | Snow |
|---|---|---|---|---|---|---|---|
| 1778190106 | 23.89° C | 99% | 1013 hPa | 1.27 mm | - | 40 W/m² | - |
| 1778189801 | 23.89° C | 99% | 1013.2 hPa | 1.27 mm | - | 25 W/m² | - |
| 1778189499 | 23.89° C | 99% | 1013.5 hPa | 0 mm | - | 16 W/m² | - |
| 1778189195 | 23.89° C | 99% | 1013.7 hPa | 0 mm | - | 19 W/m² | - |
| 1778188892 | 23.89° C | 99% | 1013.4 hPa | 1.78 mm | - | 24 W/m² | - |
| 1778188589 | 24.44° C | 99% | 1013.1 hPa | 10.67 mm | - | 24 W/m² | - |
| 1778188284 | 24.44° C | 99% | 1013.4 hPa | 22.86 mm | - | 16 W/m² | - |
| 1778187982 | 24.44° C | 99% | 1013.3 hPa | 14.99 mm | - | 13 W/m² | - |
| 1778187679 | 24.44° C | 99% | 1013.5 hPa | 0 mm | - | 14 W/m² | - |
| 1778187375 | 24.44° C | 99% | 1013.5 hPa | 1.78 mm | - | 7 W/m² | - |
| 1778187071 | 24.44° C | 99% | 1013.6 hPa | 7.87 mm | - | 12 W/m² | - |
| 1778186768 | 24.44° C | 99% | 1013.3 hPa | 8.89 mm | - | 19 W/m² | - |
| 1778186465 | 25° C | 99% | 1013.8 hPa | 1.27 mm | - | 13 W/m² | - |
| 1778186163 | 25° C | 99% | 1013.5 hPa | 0 mm | - | 18 W/m² | - |
| 1778185861 | 25.56° C | 97% | 1013.5 hPa | 0 mm | - | 28 W/m² | - |
| 1778185556 | 25.56° C | 96% | 1013.8 hPa | 0 mm | - | 43 W/m² | - |
| 1778185252 | 25.56° C | 97% | 1013.7 hPa | 0 mm | - | 46 W/m² | - |
| 1778184948 | 25.56° C | 97% | 1013.7 hPa | 0 mm | - | 76 W/m² | - |
| 1778184645 | 25.56° C | 97% | 1013.5 hPa | 0 mm | - | 94 W/m² | - |
| 1778184340 | 25.56° C | 97% | 1013.7 hPa | 0 mm | - | 78 W/m² | - |
| 1778184037 | 25.56° C | 96% | 1013.7 hPa | 0 mm | - | 59 W/m² | - |
| 1778183734 | 25.56° C | 96% | 1014 hPa | 0 mm | - | 131 W/m² | - |
| 1778183431 | 26.11° C | 97% | 1013.9 hPa | 0 mm | - | 120 W/m² | - |
| 1778183127 | 26.11° C | 97% | 1013.7 hPa | 0 mm | - | 294 W/m² | - |
| 1778182824 | 25.56° C | 98% | 1013.8 hPa | 0 mm | - | 79 W/m² | - |
* Rain latest hour (hover to see other rain measurements)
** Current wind speed in m/s (hover to see current wind gust speed)